Phoenix, AZ

8:54 PM MST on June 22, 2017 (GMT -0700)
Phoenix Sky Harbor International

Weather History for KPHX - May, 2014

Change the Weather History Date:

Thursday, May 15, 2014

  Actual Average Record
Temperature  
Mean Temperature 84 °F 82 °F  
Max Temperature 99 °F 95 °F 107 °F (1937)
Min Temperature 69 °F 69 °F 50 °F (1968)
Degree Days  
Heating Degree Days 0 0  
Month to date heating degree days 0 0  
Since 1 July heating degree days 546 934  
Cooling Degree Days 19 17  
Month to date cooling degree days 216 222  
Year to date cooling degree days 721 577  
Growing Degree Days 34 (Base 50)    
Moisture  
Dew Point 21 °F    
Average Humidity 11    
Maximum Humidity 17    
Minimum Humidity 5    
Precipitation  
Precipitation 0.00 in 0.01 in 0.93 in (2015)
Month to date precipitation 0.00 0.06  
Year to date precipitation 0.99 3.16  
Snow  
Snow 0.00 in - - ()
Month to date snowfall 0.0  
Year to date snowfall 0.0  
Since 1 July snowfall 0.0  
Snow Depth 0.00 in    
Sea Level Pressure  
Sea Level Pressure 29.96 in    
Wind  
Wind Speed 7 mph (ESE)    
Max Wind Speed 20 mph    
Max Gust Speed 23 mph    
Visibility 10 miles    
Events      
T = Trace of Precipitation, MM = Missing Value Source: NWS Daily Summary

Daily Weather History Graph

Daily Weather History Graph

Search for Another Location

Airport or City:

Trip Planner

Search our weather history database for the weather conditions in past years. The results will help you decide how hot, cold, wet, or windy it might be!

Date:

Astronomy

May. 15, 2014 Rise Set
Actual Time 5:27 AM MST 7:21 PM MST
Civil Twilight 5:00 AM MST 7:48 PM MST
Nautical Twilight 4:27 AM MST 8:22 PM MST
Astronomical Twilight 3:51 AM MST 8:57 PM MST
Moon 8:33 PM MST (5/15) 6:17 AM MST (5/15)
Length of Visible Light 14h 48m
Length of Day
13h 53m
Full, 99% of the Moon is Illuminated
May 15
Full
May 21
Last Quarter
May 28
New
Jun 5
First Quarter
Jun 12
Full

Hourly Weather History & Observations

Time (MST) Temp. Dew Point Humidity Pressure Visibility Wind Dir Wind Speed Gust Speed Precip Events Conditions
12:51 AM 75.2 °F 23.0 °F 14% 30.06 in 10.0 mi East 5.8 mph - N/A   Clear
1:51 AM 73.9 °F 24.1 °F 16% 30.01 in 10.0 mi East 5.8 mph - N/A   Clear
2:51 AM 73.0 °F 24.1 °F 16% 30.01 in 10.0 mi SE 4.6 mph - N/A   Clear
3:51 AM 72.0 °F 24.1 °F 17% 30.01 in 10.0 mi SE 3.5 mph - N/A   Clear
4:51 AM 71.1 °F 25.0 °F 18% 30.02 in 10.0 mi ESE 6.9 mph - N/A   Partly Cloudy
5:51 AM 71.1 °F 21.9 °F 16% 30.04 in 10.0 mi East 6.9 mph - N/A   Partly Cloudy
6:51 AM 77.0 °F 19.9 °F 12% 30.04 in 10.0 mi ENE 12.7 mph - N/A   Clear
7:51 AM 80.1 °F 19.9 °F 11% 30.05 in 10.0 mi ENE 16.1 mph - N/A   Clear
8:51 AM 84.0 °F 18.0 °F 9% 30.05 in 10.0 mi ENE 18.4 mph - N/A   Clear
9:51 AM 87.1 °F 18.0 °F 8% 30.04 in 10.0 mi ENE 12.7 mph - N/A   Clear
10:51 AM 89.6 °F 17.6 °F 7% 30.08 in 10.0 mi ESE 9.2 mph - N/A   Clear
12:51 PM 93.0 °F 17.1 °F 6% 29.98 in 10.0 mi Calm Calm - N/A   Clear
1:51 PM 96.1 °F 17.1 °F 6% 29.95 in 10.0 mi SSW 6.9 mph - N/A   Clear
2:51 PM 98.1 °F 18.0 °F 6% 29.91 in 10.0 mi SE 8.1 mph - N/A   Clear
3:51 PM 97.0 °F 16.0 °F 5% 29.89 in 10.0 mi WSW 5.8 mph - N/A   Clear
4:51 PM 98.6 °F 17.6 °F 5% 29.92 in 10.0 mi West 6.9 mph - N/A   Clear
5:51 PM 98.1 °F 18.0 °F 6% 29.85 in 10.0 mi West 8.1 mph 17.3 mph N/A   Clear
6:51 PM 96.1 °F 19.0 °F 6% 29.85 in 10.0 mi WNW 11.5 mph - N/A   Clear
7:51 PM 95.0 °F 19.9 °F 7% 29.86 in 10.0 mi West 10.4 mph - N/A   Clear
8:51 PM 88.0 °F 25.0 °F 10% 29.88 in 10.0 mi WSW 5.8 mph - N/A   Clear
9:51 PM 88.0 °F 25.0 °F 10% 29.88 in 10.0 mi Calm Calm - N/A   Clear
10:51 PM 89.1 °F 25.0 °F 10% 29.89 in 10.0 mi North 3.5 mph - N/A   Clear
11:51 PM 82.0 °F 28.0 °F 14% 29.89 in 10.0 mi Calm Calm - N/A   Clear